Time,TemperatureF,DewpointF,PressureIn,WindDirection,WindDirectionDegrees,WindSpeedMPH,WindSpeedGustMPH,Humidity,HourlyPrecipIn,Conditions,Clouds,dailyrainin,SoftwareType,DateUTC
2013-07-16 00:02:00,83.9,63.9,27.32,ENE,68,0.4,1.6,51,0.00,,,0.00,WUHU216HW,2013-07-16 07:02:00,
2013-07-16 00:07:00,83.7,63.7,27.32,North,0,0.4,1.6,51,0.00,,,0.00,WUHU216HW,2013-07-16 07:07:00,
2013-07-16 00:12:00,83.5,63.6,27.32,East,90,0.0,0.7,51,0.00,,,0.00,WUHU216HW,2013-07-16 07:12:00,
2013-07-16 00:17:00,83.5,64.1,27.32,ENE,68,0.7,0.7,52,0.00,,,0.00,WUHU216HW,2013-07-16 07:17:00,
2013-07-16 00:22:00,83.2,63.7,27.32,SE,135,2.9,2.9,52,0.00,,,0.00,WUHU216HW,2013-07-16 07:22:00,
2013-07-16 00:27:00,82.6,63.2,27.31,NE,45,2.0,4.7,52,0.00,,,0.00,WUHU216HW,2013-07-16 07:27:00,
2013-07-16 00:32:00,81.9,63.0,27.32,NE,45,1.8,4.7,53,0.00,,,0.00,WUHU216HW,2013-07-16 07:32:00,
2013-07-16 00:37:00,81.4,63.0,27.32,SSE,158,2.9,3.4,54,0.00,,,0.00,WUHU216HW,2013-07-16 07:37:00,
2013-07-16 00:42:00,81.0,62.7,27.32,WNW,293,2.7,4.0,54,0.00,,,0.00,WUHU216HW,2013-07-16 07:42:00,
2013-07-16 00:47:00,80.6,62.9,27.32,ESE,113,1.8,4.0,55,0.00,,,0.00,WUHU216HW,2013-07-16 07:47:00,
2013-07-16 00:52:00,80.6,62.9,27.32,ESE,113,1.6,3.8,55,0.00,,,0.00,WUHU216HW,2013-07-16 07:52:00,
2013-07-16 00:57:00,80.6,62.9,27.32,South,180,2.0,5.8,55,0.00,,,0.00,WUHU216HW,2013-07-16 07:57:00,
2013-07-16 01:02:00,80.5,62.2,27.32,ESE,113,6.7,6.7,54,0.00,,,0.00,WUHU216HW,2013-07-16 08:02:00,
2013-07-16 01:07:00,80.5,62.2,27.32,ENE,68,1.8,6.7,54,0.00,,,0.00,WUHU216HW,2013-07-16 08:07:00,
2013-07-16 01:12:00,80.5,62.2,27.32,SSE,158,1.8,6.5,54,0.00,,,0.00,WUHU216HW,2013-07-16 08:12:00,
2013-07-16 01:17:00,80.5,62.2,27.33,East,90,1.8,6.0,54,0.00,,,0.00,WUHU216HW,2013-07-16 08:17:00,
2013-07-16 01:22:00,80.5,62.2,27.33,NE,45,3.1,6.0,54,0.00,,,0.00,WUHU216HW,2013-07-16 08:22:00,
2013-07-16 01:27:00,80.5,62.2,27.32,SE,135,5.4,7.8,54,0.00,,,0.00,WUHU216HW,2013-07-16 08:27:00,
2013-07-16 01:32:00,80.3,62.6,27.32,East,90,4.9,7.8,55,0.00,,,0.00,WUHU216HW,2013-07-16 08:32:00,
2013-07-16 01:37:00,80.1,62.5,27.33,SSW,203,8.5,8.5,55,0.00,,,0.00,WUHU216HW,2013-07-16 08:37:00,
2013-07-16 01:42:00,79.9,62.8,27.33,ENE,68,4.0,8.5,56,0.00,,,0.00,WUHU216HW,2013-07-16 08:42:00,
2013-07-16 01:47:00,79.7,62.1,27.33,WNW,293,4.3,8.1,55,0.00,,,0.00,WUHU216HW,2013-07-16 08:47:00,
2013-07-16 01:52:00,79.6,61.9,27.33,NNE,23,5.6,8.1,55,0.00,,,0.00,WUHU216HW,2013-07-16 08:52:00,
2013-07-16 01:57:00,79.6,61.9,27.33,NW,315,3.4,6.9,55,0.00,,,0.00,WUHU216HW,2013-07-16 08:57:00,
2013-07-16 02:01:00,79.6,62.5,27.32,ENE,68,4.0,6.9,56,0.00,,,0.00,WUHU216HW,2013-07-16 09:01:00,
2013-07-16 02:06:00,79.2,62.6,27.32,SE,135,4.0,7.6,57,0.00,,,0.00,WUHU216HW,2013-07-16 09:06:00,
2013-07-16 02:11:00,79.0,63.0,27.33,SE,135,3.4,7.6,58,0.00,,,0.00,WUHU216HW,2013-07-16 09:11:00,
2013-07-16 02:16:00,78.8,62.8,27.32,ESE,113,6.3,6.3,58,0.00,,,0.00,WUHU216HW,2013-07-16 09:16:00,
2013-07-16 02:22:00,78.8,62.4,27.33,SSE,158,4.0,6.9,57,0.00,,,0.00,WUHU216HW,2013-07-16 09:22:00,
2013-07-16 02:26:00,78.8,62.4,27.33,ENE,68,6.9,6.9,57,0.00,,,0.00,WUHU216HW,2013-07-16 09:26:00,
2013-07-16 02:32:00,79.0,62.5,27.32,SSW,203,3.1,6.9,57,0.00,,,0.00,WUHU216HW,2013-07-16 09:32:00,
2013-07-16 02:37:00,79.2,62.1,27.32,NE,45,2.5,5.1,56,0.00,,,0.00,WUHU216HW,2013-07-16 09:37:00,
2013-07-16 02:42:00,79.2,62.6,27.32,ESE,113,4.5,5.4,57,0.00,,,0.00,WUHU216HW,2013-07-16 09:42:00,
2013-07-16 02:47:00,79.0,62.5,27.32,South,180,5.6,5.6,57,0.00,,,0.00,WUHU216HW,2013-07-16 09:47:00,
2013-07-16 02:52:00,78.8,62.8,27.32,East,90,3.8,5.6,58,0.00,,,0.00,WUHU216HW,2013-07-16 09:52:00,
2013-07-16 02:57:00,78.7,63.2,27.32,ENE,68,3.8,4.0,59,0.00,,,0.00,WUHU216HW,2013-07-16 09:57:00,
2013-07-16 03:02:00,78.7,62.6,27.32,ESE,113,1.6,4.0,58,0.00,,,0.00,WUHU216HW,2013-07-16 10:02:00,
2013-07-16 03:07:00,78.5,63.5,27.31,NE,45,5.4,5.4,60,0.00,,,0.00,WUHU216HW,2013-07-16 10:07:00,
2013-07-16 03:12:00,77.9,64.4,27.31,SSE,158,5.4,6.3,63,0.00,,,0.00,WUHU216HW,2013-07-16 10:12:00,
2013-07-16 03:17:00,77.6,64.0,27.31,East,90,1.1,6.3,63,0.00,,,0.00,WUHU216HW,2013-07-16 10:17:00,
2013-07-16 03:22:00,77.6,63.6,27.31,North,0,3.4,4.7,62,0.00,,,0.00,WUHU216HW,2013-07-16 10:22:00,
2013-07-16 03:27:00,77.8,63.7,27.31,ESE,113,1.8,4.3,62,0.00,,,0.00,WUHU216HW,2013-07-16 10:27:00,
2013-07-16 03:32:00,77.8,63.7,27.31,ESE,113,2.5,5.1,62,0.00,,,0.00,WUHU216HW,2013-07-16 10:32:00,
2013-07-16 03:37:00,77.9,63.5,27.31,SE,135,2.5,5.1,61,0.00,,,0.00,WUHU216HW,2013-07-16 10:37:00,
2013-07-16 03:42:00,77.8,63.7,27.32,SE,135,3.4,4.3,62,0.00,,,0.00,WUHU216HW,2013-07-16 10:42:00,
2013-07-16 03:47:00,77.8,63.7,27.32,NE,45,4.5,4.7,62,0.00,,,0.00,WUHU216HW,2013-07-16 10:47:00,
2013-07-16 03:52:00,77.9,63.5,27.32,North,0,1.3,4.7,61,0.00,,,0.00,WUHU216HW,2013-07-16 10:52:00,
2013-07-16 03:57:00,77.9,63.5,27.32,SE,135,2.9,4.0,61,0.00,,,0.00,WUHU216HW,2013-07-16 10:57:00,
2013-07-16 04:02:00,77.9,63.5,27.32,SE,135,3.6,3.6,61,0.00,,,0.00,WUHU216HW,2013-07-16 11:02:00,
2013-07-16 04:07:00,78.1,63.2,27.32,ESE,113,1.3,4.0,60,0.00,,,0.00,WUHU216HW,2013-07-16 11:07:00,
2013-07-16 04:12:00,78.1,63.2,27.32,ESE,113,3.1,4.0,60,0.00,,,0.00,WUHU216HW,2013-07-16 11:12:00,
2013-07-16 04:17:00,78.1,63.2,27.32,NNE,23,1.1,3.4,60,0.00,,,0.00,WUHU216HW,2013-07-16 11:17:00,
2013-07-16 04:22:00,78.1,63.2,27.32,SSE,158,3.1,3.4,60,0.00,,,0.00,WUHU216HW,2013-07-16 11:22:00,
2013-07-16 04:27:00,78.1,62.6,27.32,South,180,1.8,3.1,59,0.00,,,0.00,WUHU216HW,2013-07-16 11:27:00,
2013-07-16 04:31:00,78.1,62.6,27.33,ENE,68,1.3,3.1,59,0.00,,,0.00,WUHU216HW,2013-07-16 11:31:00,
2013-07-16 04:36:00,78.3,62.8,27.33,NW,315,2.7,3.4,59,0.00,,,0.00,WUHU216HW,2013-07-16 11:36:00,
2013-07-16 04:41:00,78.5,62.5,27.33,ESE,113,1.3,4.7,58,0.00,,,0.00,WUHU216HW,2013-07-16 11:41:00,
2013-07-16 04:46:00,78.5,62.0,27.34,ESE,113,1.1,4.7,57,0.00,,,0.00,WUHU216HW,2013-07-16 11:46:00,
2013-07-16 04:51:00,78.7,62.2,27.34,SE,135,2.0,2.2,57,0.00,,,0.00,WUHU216HW,2013-07-16 11:51:00,
2013-07-16 04:56:00,78.7,61.7,27.34,NE,45,1.6,2.0,56,0.00,,,0.00,WUHU216HW,2013-07-16 11:56:00,
2013-07-16 05:01:00,78.8,61.8,27.34,NE,45,2.7,2.7,56,0.00,,,0.00,WUHU216HW,2013-07-16 12:01:00,
2013-07-16 05:06:00,78.8,61.8,27.34,East,90,0.0,2.7,56,0.00,,,0.00,WUHU216HW,2013-07-16 12:06:00,
2013-07-16 05:11:00,78.8,61.8,27.34,NE,45,0.4,2.5,56,0.00,,,0.00,WUHU216HW,2013-07-16 12:11:00,
2013-07-16 05:16:00,78.8,61.3,27.34,NE,45,4.3,4.7,55,0.00,,,0.00,WUHU216HW,2013-07-16 12:16:00,
2013-07-16 05:22:00,78.8,61.3,27.34,SE,135,1.6,4.7,55,0.00,,,0.00,WUHU216HW,2013-07-16 12:22:00,
2013-07-16 05:27:00,78.8,61.8,27.34,NNW,338,0.2,2.5,56,0.00,,,0.00,WUHU216HW,2013-07-16 12:27:00,
2013-07-16 05:32:00,78.5,62.0,27.34,SE,135,1.6,2.5,57,0.00,,,0.00,WUHU216HW,2013-07-16 12:32:00,
2013-07-16 05:37:00,78.1,62.2,27.34,WSW,248,1.1,2.5,58,0.00,,,0.00,WUHU216HW,2013-07-16 12:37:00,
2013-07-16 05:42:00,77.8,62.3,27.34,NE,45,3.1,3.1,59,0.00,,,0.00,WUHU216HW,2013-07-16 12:42:00,
2013-07-16 05:47:00,77.8,62.3,27.34,SE,135,1.3,3.4,59,0.00,,,0.00,WUHU216HW,2013-07-16 12:47:00,
2013-07-16 05:52:00,77.8,61.8,27.34,NE,45,0.9,3.4,58,0.00,,,0.00,WUHU216HW,2013-07-16 12:52:00,
2013-07-16 05:56:00,77.8,61.8,27.34,East,90,1.1,3.6,58,0.00,,,0.00,WUHU216HW,2013-07-16 12:56:00,
2013-07-16 06:02:00,77.8,61.8,27.35,SE,135,1.1,3.6,58,0.00,,,0.00,WUHU216HW,2013-07-16 13:02:00,
2013-07-16 06:06:00,77.8,61.8,27.35,SSE,158,0.4,1.8,58,0.00,,,0.00,WUHU216HW,2013-07-16 13:06:00,
2013-07-16 06:11:00,77.8,61.8,27.34,SE,135,0.7,1.3,58,0.00,,,0.00,WUHU216HW,2013-07-16 13:11:00,
2013-07-16 06:16:00,77.8,61.3,27.35,South,180,2.0,2.0,57,0.00,,,0.00,WUHU216HW,2013-07-16 13:16:00,
2013-07-16 06:22:00,77.8,61.8,27.35,East,90,2.7,2.7,58,0.00,,,0.00,WUHU216HW,2013-07-16 13:22:00,
2013-07-16 06:26:00,77.8,61.8,27.35,North,0,1.1,2.7,58,0.00,,,0.00,WUHU216HW,2013-07-16 13:26:00,
2013-07-16 06:32:00,77.9,62.0,27.35,ESE,113,0.9,1.6,58,0.00,,,0.00,WUHU216HW,2013-07-16 13:32:00,
2013-07-16 06:37:00,77.8,61.8,27.36,SE,135,2.5,2.5,58,0.00,,,0.00,WUHU216HW,2013-07-16 13:37:00,
2013-07-16 06:42:00,77.9,62.0,27.36,SE,135,0.4,2.5,58,0.00,,,0.00,WUHU216HW,2013-07-16 13:42:00,
2013-07-16 06:47:00,77.9,62.0,27.36,SE,135,0.2,1.1,58,0.00,,,0.00,WUHU216HW,2013-07-16 13:47:00,
2013-07-16 06:52:00,78.1,62.2,27.36,SE,135,1.3,2.5,58,0.00,,,0.00,WUHU216HW,2013-07-16 13:52:00,
2013-07-16 06:57:00,78.1,62.2,27.37,NE,45,1.3,2.5,58,0.00,,,0.00,WUHU216HW,2013-07-16 13:57:00,
2013-07-16 07:02:00,78.1,61.7,27.37,ESE,113,0.4,2.5,57,0.00,,,0.00,WUHU216HW,2013-07-16 14:02:00,
2013-07-16 07:07:00,78.1,61.7,27.37,NE,45,0.7,2.5,57,0.00,,,0.00,WUHU216HW,2013-07-16 14:07:00,
2013-07-16 07:12:00,78.3,62.4,27.37,NE,45,0.0,0.7,58,0.00,,,0.00,WUHU216HW,2013-07-16 14:12:00,
2013-07-16 07:17:00,78.5,62.5,27.37,North,0,0.4,0.7,58,0.00,,,0.00,WUHU216HW,2013-07-16 14:17:00,
2013-07-16 07:22:00,78.5,63.0,27.37,NW,315,0.4,0.7,59,0.00,,,0.00,WUHU216HW,2013-07-16 14:22:00,
2013-07-16 07:27:00,78.7,63.2,27.37,West,270,0.0,0.7,59,0.00,,,0.00,WUHU216HW,2013-07-16 14:27:00,
2013-07-16 07:32:00,78.7,63.2,27.37,West,270,0.0,0.4,59,0.00,,,0.00,WUHU216HW,2013-07-16 14:32:00,
2013-07-16 07:37:00,78.8,62.8,27.37,SW,225,0.0,0.7,58,0.00,,,0.00,WUHU216HW,2013-07-16 14:37:00,
2013-07-16 07:42:00,78.8,62.8,27.38,SW,225,0.0,0.7,58,0.00,,,0.00,WUHU216HW,2013-07-16 14:42:00,
2013-07-16 07:47:00,79.0,63.0,27.38,SSW,203,0.0,0.2,58,0.00,,,0.00,WUHU216HW,2013-07-16 14:47:00,
2013-07-16 07:52:00,79.2,63.2,27.38,SE,135,1.1,1.1,58,0.00,,,0.00,WUHU216HW,2013-07-16 14:52:00,
2013-07-16 07:57:00,79.2,63.7,27.38,SE,135,1.1,1.1,59,0.00,,,0.00,WUHU216HW,2013-07-16 14:57:00,
2013-07-16 08:02:00,79.0,64.1,27.38,NE,45,0.4,1.1,60,0.00,,,0.00,WUHU216HW,2013-07-16 15:02:00,
2013-07-16 08:07:00,79.0,64.1,27.38,ESE,113,0.4,1.1,60,0.00,,,0.00,WUHU216HW,2013-07-16 15:07:00,
2013-07-16 08:12:00,79.2,64.3,27.39,East,90,0.0,0.4,60,0.00,,,0.00,WUHU216HW,2013-07-16 15:12:00,
2013-07-16 08:17:00,79.4,63.9,27.39,North,0,0.9,0.9,59,0.00,,,0.00,WUHU216HW,2013-07-16 15:17:00,
2013-07-16 08:22:00,79.4,63.9,27.39,North,0,0.0,0.9,59,0.00,,,0.00,WUHU216HW,2013-07-16 15:22:00,
2013-07-16 08:27:00,79.6,64.0,27.39,WSW,248,0.0,0.0,59,0.00,,,0.00,WUHU216HW,2013-07-16 15:27:00,
2013-07-16 08:32:00,79.7,63.6,27.39,SW,225,0.0,0.7,58,0.00,,,0.00,WUHU216HW,2013-07-16 15:32:00,
2013-07-16 08:37:00,79.9,63.8,27.39,SSE,158,0.7,0.7,58,0.00,,,0.00,WUHU216HW,2013-07-16 15:37:00,
2013-07-16 08:42:00,80.3,64.2,27.39,SE,135,1.1,1.1,58,0.00,,,0.00,WUHU216HW,2013-07-16 15:42:00,
2013-07-16 08:47:00,80.5,64.4,27.39,SSE,158,0.0,1.1,58,0.00,,,0.00,WUHU216HW,2013-07-16 15:47:00,
2013-07-16 08:52:00,80.6,64.4,27.39,ESE,113,0.7,0.9,58,0.00,,,0.00,WUHU216HW,2013-07-16 15:52:00,
2013-07-16 08:57:00,80.8,64.6,27.39,SSW,203,0.9,1.1,58,0.00,,,0.00,WUHU216HW,2013-07-16 15:57:00,
2013-07-16 09:02:00,81.0,64.3,27.39,SSE,158,0.0,2.5,57,0.00,,,0.00,WUHU216HW,2013-07-16 16:02:00,
2013-07-16 09:07:00,81.4,64.6,27.39,SSE,158,0.9,2.5,57,0.00,,,0.00,WUHU216HW,2013-07-16 16:07:00,
2013-07-16 09:12:00,81.5,64.8,27.39,SE,135,1.8,1.8,57,0.00,,,0.00,WUHU216HW,2013-07-16 16:12:00,
2013-07-16 09:17:00,81.7,64.5,27.39,SSE,158,0.9,1.8,56,0.00,,,0.00,WUHU216HW,2013-07-16 16:17:00,
2013-07-16 09:22:00,82.1,64.2,27.38,WSW,248,0.9,1.8,55,0.00,,,0.00,WUHU216HW,2013-07-16 16:22:00,
2013-07-16 09:27:00,82.6,64.7,27.39,ENE,68,1.1,1.6,55,0.00,,,0.00,WUHU216HW,2013-07-16 16:27:00,
2013-07-16 09:32:00,82.8,64.4,27.39,SE,135,1.3,1.6,54,0.00,,,0.00,WUHU216HW,2013-07-16 16:32:00,
2013-07-16 09:37:00,83.2,64.2,27.39,SE,135,1.8,1.8,53,0.00,,,0.00,WUHU216HW,2013-07-16 16:37:00,
2013-07-16 09:42:00,83.5,64.5,27.39,ESE,113,0.7,2.5,53,0.00,,,0.00,WUHU216HW,2013-07-16 16:42:00,
2013-07-16 09:47:00,83.7,64.3,27.39,NNE,23,0.0,2.5,52,0.00,,,0.00,WUHU216HW,2013-07-16 16:47:00,
2013-07-16 09:52:00,83.9,64.9,27.39,West,270,0.7,1.8,53,0.00,,,0.00,WUHU216HW,2013-07-16 16:52:00,
2013-07-16 09:57:00,84.2,65.3,27.39,ESE,113,0.4,1.8,53,0.00,,,0.00,WUHU216HW,2013-07-16 16:57:00,
2013-07-16 10:02:00,84.6,65.6,27.39,SE,135,1.6,1.8,53,0.00,,,0.00,WUHU216HW,2013-07-16 17:02:00,
2013-07-16 10:07:00,84.6,65.6,27.39,ENE,68,0.0,1.6,53,0.00,,,0.00,WUHU216HW,2013-07-16 17:07:00,
2013-07-16 10:12:00,84.8,65.3,27.39,NNW,338,0.4,1.3,52,0.00,,,0.00,WUHU216HW,2013-07-16 17:12:00,
2013-07-16 10:17:00,85.0,65.4,27.39,WSW,248,0.4,1.3,52,0.00,,,0.00,WUHU216HW,2013-07-16 17:17:00,
2013-07-16 10:22:00,85.1,65.6,27.39,ESE,113,0.9,1.8,52,0.00,,,0.00,WUHU216HW,2013-07-16 17:22:00,
2013-07-16 10:27:00,85.5,65.9,27.39,East,90,1.8,2.5,52,0.00,,,0.00,WUHU216HW,2013-07-16 17:27:00,
2013-07-16 10:32:00,85.9,65.7,27.39,NE,45,0.4,2.5,51,0.00,,,0.00,WUHU216HW,2013-07-16 17:32:00,
2013-07-16 10:37:00,86.2,66.1,27.39,North,0,0.7,2.2,51,0.00,,,0.00,WUHU216HW,2013-07-16 17:37:00,
2013-07-16 10:42:00,86.6,65.8,27.39,SSE,158,2.0,2.2,50,0.00,,,0.00,WUHU216HW,2013-07-16 17:42:00,
2013-07-16 10:47:00,86.8,65.3,27.39,ESE,113,0.4,2.7,49,0.00,,,0.00,WUHU216HW,2013-07-16 17:47:00,
2013-07-16 10:52:00,86.9,64.9,27.39,SSE,158,0.4,2.7,48,0.00,,,0.00,WUHU216HW,2013-07-16 17:52:00,
2013-07-16 10:57:00,86.9,64.9,27.39,ESE,113,2.0,2.5,48,0.00,,,0.00,WUHU216HW,2013-07-16 17:57:00,
2013-07-16 11:02:00,87.1,65.1,27.39,SSE,158,1.6,3.8,48,0.00,,,0.00,WUHU216HW,2013-07-16 18:02:00,
2013-07-16 11:07:00,86.9,64.9,27.39,WSW,248,2.5,3.8,48,0.00,,,0.00,WUHU216HW,2013-07-16 18:07:00,
2013-07-16 11:12:00,86.9,64.9,27.39,ENE,68,2.5,4.0,48,0.00,,,0.00,WUHU216HW,2013-07-16 18:12:00,
2013-07-16 11:17:00,86.8,64.7,27.39,ENE,68,3.4,4.0,48,0.00,,,0.00,WUHU216HW,2013-07-16 18:17:00,
2013-07-16 11:22:00,87.1,65.1,27.39,ESE,113,1.8,4.0,48,0.00,,,0.00,WUHU216HW,2013-07-16 18:22:00,
2013-07-16 11:27:00,87.5,64.7,27.38,ESE,113,1.1,3.4,47,0.00,,,0.00,WUHU216HW,2013-07-16 18:27:00,
2013-07-16 11:32:00,87.5,64.7,27.38,ENE,68,1.1,3.4,47,0.00,,,0.00,WUHU216HW,2013-07-16 18:32:00,
2013-07-16 11:37:00,87.7,64.9,27.39,SE,135,1.6,3.1,47,0.00,,,0.00,WUHU216HW,2013-07-16 18:37:00,
2013-07-16 11:42:00,87.8,65.1,27.38,NE,45,0.7,1.8,47,0.00,,,0.00,WUHU216HW,2013-07-16 18:42:00,
2013-07-16 11:47:00,88.0,65.3,27.38,SE,135,1.3,1.3,47,0.00,,,0.00,WUHU216HW,2013-07-16 18:47:00,
2013-07-16 11:52:00,88.0,64.6,27.38,NNE,23,0.0,1.3,46,0.00,,,0.00,WUHU216HW,2013-07-16 18:52:00,
2013-07-16 11:57:00,88.0,64.6,27.38,WSW,248,0.7,1.1,46,0.00,,,0.00,WUHU216HW,2013-07-16 18:57:00,
2013-07-16 12:02:00,87.8,64.4,27.38,NNE,23,0.2,0.9,46,0.00,,,0.00,WUHU216HW,2013-07-16 19:02:00,
2013-07-16 12:07:00,87.8,64.4,27.38,ESE,113,0.7,3.6,46,0.00,,,0.00,WUHU216HW,2013-07-16 19:07:00,
2013-07-16 12:12:00,87.7,64.3,27.38,ESE,113,1.1,3.6,46,0.00,,,0.00,WUHU216HW,2013-07-16 19:12:00,
2013-07-16 12:17:00,87.8,64.4,27.38,NE,45,2.0,2.5,46,0.00,,,0.00,WUHU216HW,2013-07-16 19:17:00,
2013-07-16 12:22:00,88.0,64.6,27.38,ENE,68,1.1,2.2,46,0.00,,,0.00,WUHU216HW,2013-07-16 19:22:00,
2013-07-16 12:27:00,88.2,64.7,27.38,SSW,203,0.0,2.2,46,0.00,,,0.00,WUHU216HW,2013-07-16 19:27:00,
2013-07-16 12:32:00,88.6,64.5,27.38,West,270,1.1,2.9,45,0.00,,,0.00,WUHU216HW,2013-07-16 19:32:00,
2013-07-16 12:37:00,88.6,64.5,27.38,South,180,0.9,2.9,45,0.00,,,0.00,WUHU216HW,2013-07-16 19:37:00,
2013-07-16 12:42:00,88.7,64.6,27.37,SSE,158,1.8,2.0,45,0.00,,,0.00,WUHU216HW,2013-07-16 19:42:00,
2013-07-16 12:47:00,88.7,64.6,27.37,SSE,158,1.3,2.5,45,0.00,,,0.00,WUHU216HW,2013-07-16 19:47:00,
2013-07-16 12:52:00,88.9,64.7,27.37,NNE,23,0.9,2.5,45,0.00,,,0.00,WUHU216HW,2013-07-16 19:52:00,
2013-07-16 12:57:00,88.7,64.6,27.37,SSE,158,2.5,3.4,45,0.00,,,0.00,WUHU216HW,2013-07-16 19:57:00,
2013-07-16 13:02:00,88.4,64.3,27.37,NNE,23,1.8,3.4,45,0.00,,,0.00,WUHU216HW,2013-07-16 20:02:00,
2013-07-16 13:07:00,88.2,64.7,27.37,ENE,68,2.2,3.1,46,0.00,,,0.00,WUHU216HW,2013-07-16 20:07:00,
2013-07-16 13:12:00,87.3,65.3,27.37,East,90,2.2,4.7,48,0.00,,,0.00,WUHU216HW,2013-07-16 20:12:00,
2013-07-16 13:17:00,86.4,65.1,27.37,ESE,113,2.0,4.7,49,0.00,,,0.00,WUHU216HW,2013-07-16 20:17:00,
2013-07-16 13:22:00,85.7,65.0,27.37,ESE,113,1.1,3.1,50,0.00,,,0.00,WUHU216HW,2013-07-16 20:22:00,
2013-07-16 13:27:00,85.5,64.9,27.37,ESE,113,1.8,3.4,50,0.00,,,0.00,WUHU216HW,2013-07-16 20:27:00,
2013-07-16 13:32:00,85.3,64.7,27.37,SE,135,1.8,3.4,50,0.00,,,0.00,WUHU216HW,2013-07-16 20:32:00,
2013-07-16 13:37:00,85.3,65.3,27.37,ESE,113,6.0,6.0,51,0.00,,,0.00,WUHU216HW,2013-07-16 20:37:00,
2013-07-16 13:42:00,85.1,64.5,27.37,SE,135,2.7,6.0,50,0.00,,,0.00,WUHU216HW,2013-07-16 20:42:00,
2013-07-16 13:47:00,84.8,64.7,27.37,NE,45,1.6,5.1,51,0.00,,,0.00,WUHU216HW,2013-07-16 20:47:00,
2013-07-16 13:52:00,84.4,64.5,27.37,NE,45,2.7,5.1,51,0.00,,,0.00,WUHU216HW,2013-07-16 20:52:00,
2013-07-16 13:57:00,84.1,64.1,27.37,SSE,158,2.5,4.7,51,0.00,,,0.00,WUHU216HW,2013-07-16 20:57:00,
2013-07-16 14:02:00,83.9,64.5,27.37,ESE,113,3.4,3.4,52,0.00,,,0.00,WUHU216HW,2013-07-16 21:02:00,
2013-07-16 14:07:00,83.7,64.3,27.37,SE,135,1.1,3.4,52,0.00,,,0.00,WUHU216HW,2013-07-16 21:07:00,
2013-07-16 14:12:00,83.5,64.1,27.36,SE,135,3.6,3.8,52,0.00,,,0.00,WUHU216HW,2013-07-16 21:12:00,
2013-07-16 14:17:00,83.3,64.4,27.36,SE,135,3.4,4.5,53,0.00,,,0.00,WUHU216HW,2013-07-16 21:17:00,
2013-07-16 14:22:00,83.3,64.4,27.36,SE,135,2.9,4.5,53,0.00,,,0.00,WUHU216HW,2013-07-16 21:22:00,
2013-07-16 14:27:00,83.5,64.5,27.36,ESE,113,2.0,4.0,53,0.00,,,0.00,WUHU216HW,2013-07-16 21:27:00,
2013-07-16 14:32:00,83.9,64.9,27.35,South,180,3.1,4.9,53,0.00,,,0.00,WUHU216HW,2013-07-16 21:32:00,
2013-07-16 14:37:00,84.1,65.1,27.35,ESE,113,2.7,4.9,53,0.00,,,0.00,WUHU216HW,2013-07-16 21:37:00,
2013-07-16 14:42:00,84.2,65.3,27.36,ESE,113,2.5,3.4,53,0.00,,,0.00,WUHU216HW,2013-07-16 21:42:00,
2013-07-16 14:47:00,84.4,66.0,27.35,ESE,113,1.1,3.4,54,0.00,,,0.00,WUHU216HW,2013-07-16 21:47:00,
2013-07-16 14:52:00,84.6,65.6,27.36,SE,135,4.5,4.5,53,0.00,,,0.00,WUHU216HW,2013-07-16 21:52:00,
2013-07-16 14:57:00,84.4,65.4,27.35,NE,45,2.2,4.5,53,0.00,,,0.00,WUHU216HW,2013-07-16 21:57:00,
2013-07-16 15:02:00,84.6,65.6,27.35,WSW,248,3.4,3.4,53,0.00,,,0.00,WUHU216HW,2013-07-16 22:02:00,
2013-07-16 15:07:00,84.4,66.0,27.35,ENE,68,4.5,4.5,54,0.00,,,0.00,WUHU216HW,2013-07-16 22:07:00,
2013-07-16 15:12:00,84.1,65.6,27.35,NE,45,2.0,4.5,54,0.00,,,0.00,WUHU216HW,2013-07-16 22:12:00,
2013-07-16 15:17:00,84.1,65.6,27.35,SSE,158,3.6,5.8,54,0.00,,,0.00,WUHU216HW,2013-07-16 22:17:00,
2013-07-16 15:22:00,84.1,65.6,27.35,SSE,158,3.1,5.8,54,0.00,,,0.00,WUHU216HW,2013-07-16 22:22:00,
2013-07-16 15:27:00,84.1,65.6,27.35,ESE,113,3.1,4.0,54,0.00,,,0.00,WUHU216HW,2013-07-16 22:27:00,
2013-07-16 15:32:00,84.1,66.2,27.35,SE,135,3.6,4.0,55,0.00,,,0.00,WUHU216HW,2013-07-16 22:32:00,
2013-07-16 15:37:00,83.9,65.4,27.35,South,180,1.3,4.7,54,0.00,,,0.00,WUHU216HW,2013-07-16 22:37:00,
2013-07-16 15:42:00,84.1,65.6,27.35,SE,135,3.4,4.7,54,0.00,,,0.00,WUHU216HW,2013-07-16 22:42:00,
2013-07-16 15:47:00,83.9,65.4,27.36,SE,135,1.8,4.9,54,0.00,,,0.00,WUHU216HW,2013-07-16 22:47:00,
2013-07-16 15:52:00,83.9,65.4,27.35,ESE,113,2.0,4.9,54,0.00,,,0.00,WUHU216HW,2013-07-16 22:52:00,
2013-07-16 15:57:00,83.9,65.4,27.35,ESE,113,3.4,3.4,54,0.00,,,0.00,WUHU216HW,2013-07-16 22:57:00,
2013-07-16 16:02:00,83.7,65.3,27.35,SE,135,3.1,4.5,54,0.00,,,0.00,WUHU216HW,2013-07-16 23:02:00,
2013-07-16 16:07:00,83.5,65.1,27.35,SE,135,4.0,4.5,54,0.00,,,0.00,WUHU216HW,2013-07-16 23:07:00,
2013-07-16 16:12:00,83.5,65.6,27.35,ESE,113,3.4,4.0,55,0.00,,,0.00,WUHU216HW,2013-07-16 23:12:00,
2013-07-16 16:17:00,83.3,64.9,27.36,ESE,113,3.4,4.0,54,0.00,,,0.00,WUHU216HW,2013-07-16 23:17:00,
2013-07-16 16:22:00,83.3,65.4,27.36,SSE,158,4.7,5.4,55,0.00,,,0.00,WUHU216HW,2013-07-16 23:22:00,
2013-07-16 16:27:00,83.2,65.3,27.36,SE,135,2.0,5.4,55,0.00,,,0.00,WUHU216HW,2013-07-16 23:27:00,
2013-07-16 16:32:00,83.2,65.3,27.36,ESE,113,4.7,4.7,55,0.00,,,0.00,WUHU216HW,2013-07-16 23:32:00,
2013-07-16 16:37:00,83.2,65.3,27.36,ESE,113,2.2,5.8,55,0.00,,,0.00,WUHU216HW,2013-07-16 23:37:00,
2013-07-16 16:42:00,83.2,65.3,27.37,SSE,158,8.5,8.5,55,0.00,,,0.00,WUHU216HW,2013-07-16 23:42:00,
2013-07-16 16:47:00,83.2,64.7,27.37,SSE,158,2.2,8.5,54,0.00,,,0.00,WUHU216HW,2013-07-16 23:47:00,
2013-07-16 16:52:00,83.3,65.4,27.37,South,180,2.9,5.4,55,0.00,,,0.00,WUHU216HW,2013-07-16 23:52:00,
2013-07-16 16:57:00,83.5,65.1,27.37,East,90,2.7,5.4,54,0.00,,,0.00,WUHU216HW,2013-07-16 23:57:00,
2013-07-16 17:02:00,83.7,64.7,27.37,SE,135,3.1,3.8,53,0.00,,,0.00,WUHU216HW,2013-07-17 00:02:00,
2013-07-16 17:07:00,83.5,64.5,27.37,SSE,158,4.0,4.5,53,0.00,,,0.00,WUHU216HW,2013-07-17 00:07:00,
2013-07-16 17:12:00,83.3,64.9,27.37,ESE,113,1.6,4.5,54,0.00,,,0.00,WUHU216HW,2013-07-17 00:12:00,
2013-07-16 17:17:00,83.5,64.5,27.37,South,180,3.4,5.1,53,0.00,,,0.00,WUHU216HW,2013-07-17 00:17:00,
2013-07-16 17:22:00,83.3,63.9,27.37,SE,135,3.4,5.1,52,0.00,,,0.00,WUHU216HW,2013-07-17 00:22:00,
2013-07-16 17:27:00,83.2,63.7,27.36,ENE,68,3.4,4.7,52,0.00,,,0.00,WUHU216HW,2013-07-17 00:27:00,
2013-07-16 17:32:00,83.2,63.7,27.36,ENE,68,2.5,4.7,52,0.00,,,0.00,WUHU216HW,2013-07-17 00:32:00,
2013-07-16 17:37:00,83.2,63.7,27.36,NE,45,2.9,4.9,52,0.00,,,0.00,WUHU216HW,2013-07-17 00:37:00,
2013-07-16 17:42:00,83.0,63.6,27.36,SE,135,1.8,6.0,52,0.00,,,0.00,WUHU216HW,2013-07-17 00:42:00,
2013-07-16 17:47:00,82.8,63.8,27.36,South,180,2.7,6.0,53,0.00,,,0.00,WUHU216HW,2013-07-17 00:47:00,
2013-07-16 17:52:00,82.8,63.8,27.36,SE,135,3.8,6.3,53,0.00,,,0.00,WUHU216HW,2013-07-17 00:52:00,
2013-07-16 17:57:00,82.6,63.6,27.35,ESE,113,4.7,6.3,53,0.00,,,0.00,WUHU216HW,2013-07-17 00:57:00,
2013-07-16 18:02:00,82.4,63.5,27.35,ENE,68,2.5,4.7,53,0.00,,,0.00,WUHU216HW,2013-07-17 01:02:00,
2013-07-16 18:07:00,82.4,63.5,27.35,SSE,158,3.1,3.6,53,0.00,,,0.00,WUHU216HW,2013-07-17 01:07:00,
2013-07-16 18:12:00,82.4,63.5,27.35,ENE,68,2.5,3.6,53,0.00,,,0.00,WUHU216HW,2013-07-17 01:12:00,
2013-07-16 18:17:00,82.4,63.5,27.35,SE,135,2.2,2.5,53,0.00,,,0.00,WUHU216HW,2013-07-17 01:17:00,
2013-07-16 18:22:00,82.6,63.6,27.35,SSW,203,2.0,3.1,53,0.00,,,0.00,WUHU216HW,2013-07-17 01:22:00,
2013-07-16 18:27:00,82.4,63.5,27.35,East,90,2.0,3.8,53,0.00,,,0.00,WUHU216HW,2013-07-17 01:27:00,
2013-07-16 18:32:00,82.3,63.4,27.35,SSE,158,2.5,3.8,53,0.00,,,0.00,WUHU216HW,2013-07-17 01:32:00,
2013-07-16 18:37:00,82.1,63.7,27.35,North,0,1.3,3.4,54,0.00,,,0.00,WUHU216HW,2013-07-17 01:37:00,
2013-07-16 18:42:00,81.9,63.6,27.35,East,90,6.0,6.0,54,0.00,,,0.00,WUHU216HW,2013-07-17 01:42:00,
2013-07-16 18:47:00,81.7,63.4,27.35,ENE,68,2.0,6.0,54,0.00,,,0.00,WUHU216HW,2013-07-17 01:47:00,
2013-07-16 18:52:00,81.5,63.2,27.35,SE,135,3.4,4.3,54,0.00,,,0.00,WUHU216HW,2013-07-17 01:52:00,
2013-07-16 18:57:00,81.4,63.5,27.35,South,180,2.5,4.0,55,0.00,,,0.00,WUHU216HW,2013-07-17 01:57:00,
2013-07-16 19:02:00,81.4,63.5,27.35,NE,45,2.2,4.0,55,0.00,,,0.00,WUHU216HW,2013-07-17 02:02:00,
2013-07-16 19:07:00,81.4,63.5,27.36,SSE,158,1.8,3.6,55,0.00,,,0.00,WUHU216HW,2013-07-17 02:07:00,
2013-07-16 19:12:00,81.4,63.5,27.35,SSE,158,1.6,3.6,55,0.00,,,0.00,WUHU216HW,2013-07-17 02:12:00,
2013-07-16 19:17:00,81.4,63.5,27.36,ENE,68,2.5,3.6,55,0.00,,,0.00,WUHU216HW,2013-07-17 02:17:00,
2013-07-16 19:22:00,81.5,63.2,27.36,SSE,158,2.5,4.0,54,0.00,,,0.00,WUHU216HW,2013-07-17 02:22:00,
2013-07-16 19:27:00,81.5,62.6,27.36,SE,135,4.7,5.4,53,0.00,,,0.00,WUHU216HW,2013-07-17 02:27:00,
2013-07-16 19:32:00,81.7,62.8,27.36,SSE,158,2.2,5.4,53,0.00,,,0.00,WUHU216HW,2013-07-17 02:32:00,
2013-07-16 19:37:00,81.7,62.3,27.37,East,90,2.5,4.0,52,0.00,,,0.00,WUHU216HW,2013-07-17 02:37:00,
2013-07-16 19:42:00,81.9,62.5,27.37,NNW,338,0.7,4.0,52,0.00,,,0.00,WUHU216HW,2013-07-17 02:42:00,
2013-07-16 19:47:00,82.1,62.6,27.37,SSE,158,1.1,3.1,52,0.00,,,0.00,WUHU216HW,2013-07-17 02:47:00,
2013-07-16 19:52:00,82.1,63.2,27.37,ENE,68,0.0,2.9,53,0.00,,,0.00,WUHU216HW,2013-07-17 02:52:00,
2013-07-16 19:57:00,82.1,63.7,27.38,North,0,0.4,1.1,54,0.00,,,0.00,WUHU216HW,2013-07-17 02:57:00,
2013-07-16 20:02:00,82.1,63.7,27.38,NW,315,0.0,1.1,54,0.00,,,0.00,WUHU216HW,2013-07-17 03:02:00,
2013-07-16 20:07:00,82.1,63.7,27.39,East,90,0.0,0.4,54,0.00,,,0.00,WUHU216HW,2013-07-17 03:07:00,
2013-07-16 20:12:00,82.1,63.7,27.39,SSE,158,2.9,2.9,54,0.00,,,0.00,WUHU216HW,2013-07-17 03:12:00,
2013-07-16 20:17:00,81.7,62.3,27.39,SE,135,3.4,3.4,52,0.00,,,0.00,WUHU216HW,2013-07-17 03:17:00,
2013-07-16 20:22:00,81.5,63.2,27.40,SSW,203,1.3,3.4,54,0.00,,,0.00,WUHU216HW,2013-07-17 03:22:00,
2013-07-16 20:27:00,81.0,62.7,27.40,WSW,248,0.2,2.9,54,0.00,,,0.00,WUHU216HW,2013-07-17 03:27:00,
2013-07-16 20:32:00,81.0,62.7,27.41,SE,135,2.2,3.8,54,0.00,,,0.00,WUHU216HW,2013-07-17 03:32:00,
2013-07-16 20:37:00,80.8,63.1,27.41,SW,225,2.2,3.8,55,0.00,,,0.00,WUHU216HW,2013-07-17 03:37:00,
2013-07-16 20:42:00,80.5,62.7,27.41,SE,135,1.6,2.2,55,0.00,,,0.00,WUHU216HW,2013-07-17 03:42:00,
2013-07-16 20:47:00,80.3,62.6,27.42,SE,135,0.7,1.6,55,0.00,,,0.00,WUHU216HW,2013-07-17 03:47:00,
2013-07-16 20:52:00,80.3,63.1,27.42,SSW,203,0.9,1.6,56,0.00,,,0.00,WUHU216HW,2013-07-17 03:52:00,
2013-07-16 20:57:00,80.1,62.9,27.42,SSE,158,0.4,1.6,56,0.00,,,0.00,WUHU216HW,2013-07-17 03:57:00,
2013-07-16 21:01:00,80.3,63.1,27.42,SW,225,0.4,1.6,56,0.00,,,0.00,WUHU216HW,2013-07-17 04:01:00,
2013-07-16 21:06:00,80.3,63.6,27.43,SE,135,0.7,2.2,57,0.00,,,0.00,WUHU216HW,2013-07-17 04:06:00,
2013-07-16 21:11:00,80.3,63.6,27.43,East,90,0.0,2.2,57,0.00,,,0.00,WUHU216HW,2013-07-17 04:11:00,
2013-07-16 21:16:00,80.3,63.6,27.44,North,0,0.4,0.7,57,0.00,,,0.00,WUHU216HW,2013-07-17 04:16:00,
2013-07-16 21:21:00,80.5,63.8,27.43,WNW,293,0.9,0.9,57,0.00,,,0.00,WUHU216HW,2013-07-17 04:21:00,
2013-07-16 21:26:00,80.3,63.6,27.44,NW,315,0.0,0.9,57,0.00,,,0.00,WUHU216HW,2013-07-17 04:26:00,
2013-07-16 21:31:00,80.3,63.6,27.44,NNE,23,0.0,0.7,57,0.00,,,0.00,WUHU216HW,2013-07-17 04:31:00,
2013-07-16 21:36:00,80.3,63.6,27.44,NNE,23,0.0,0.7,57,0.00,,,0.00,WUHU216HW,2013-07-17 04:36:00,
2013-07-16 21:41:00,80.3,63.6,27.44,WSW,248,0.0,0.0,57,0.00,,,0.00,WUHU216HW,2013-07-17 04:41:00,
2013-07-16 21:46:00,80.3,64.2,27.44,SW,225,0.2,0.2,58,0.00,,,0.00,WUHU216HW,2013-07-17 04:46:00,
2013-07-16 21:51:00,80.5,64.4,27.44,WSW,248,0.9,0.9,58,0.00,,,0.00,WUHU216HW,2013-07-17 04:51:00,
2013-07-16 21:55:00,80.5,64.4,27.44,SW,225,0.0,1.3,58,0.00,,,0.00,WUHU216HW,2013-07-17 04:55:00,
2013-07-16 21:59:00,80.3,64.7,27.44,SW,225,0.0,1.3,59,0.00,,,0.00,WUHU216HW,2013-07-17 04:59:00,
2013-07-16 22:04:00,80.3,64.7,27.45,SW,225,1.1,1.1,59,0.00,,,0.00,WUHU216HW,2013-07-17 05:04:00,
2013-07-16 22:09:00,80.3,64.7,27.44,WSW,248,0.4,1.1,59,0.00,,,0.00,WUHU216HW,2013-07-17 05:09:00,
2013-07-16 22:14:00,80.1,64.5,27.44,SW,225,0.4,0.7,59,0.00,,,0.00,WUHU216HW,2013-07-17 05:14:00,
2013-07-16 22:19:00,80.1,65.1,27.45,SW,225,1.1,1.1,60,0.00,,,0.00,WUHU216HW,2013-07-17 05:19:00,
2013-07-16 22:24:00,80.1,65.1,27.45,SW,225,0.2,1.1,60,0.00,,,0.00,WUHU216HW,2013-07-17 05:24:00,
2013-07-16 22:29:00,79.9,64.9,27.45,SW,225,1.8,1.8,60,0.00,,,0.00,WUHU216HW,2013-07-17 05:29:00,
2013-07-16 22:34:00,79.9,64.9,27.45,SW,225,0.0,1.8,60,0.00,,,0.00,WUHU216HW,2013-07-17 05:34:00,
2013-07-16 22:39:00,79.9,64.9,27.45,SW,225,0.7,1.3,60,0.00,,,0.00,WUHU216HW,2013-07-17 05:39:00,
2013-07-16 22:44:00,79.9,65.4,27.44,SW,225,0.4,1.1,61,0.00,,,0.00,WUHU216HW,2013-07-17 05:44:00,
2013-07-16 22:49:00,79.9,65.4,27.45,SW,225,0.4,0.7,61,0.00,,,0.00,WUHU216HW,2013-07-17 05:49:00,
2013-07-16 22:54:00,79.7,65.2,27.45,West,270,0.7,0.7,61,0.00,,,0.00,WUHU216HW,2013-07-17 05:54:00,
2013-07-16 22:59:00,79.6,65.4,27.45,NW,315,0.4,0.7,62,0.00,,,0.00,WUHU216HW,2013-07-17 05:59:00,
2013-07-16 23:04:00,79.4,65.3,27.45,NW,315,0.0,0.7,62,0.00,,,0.00,WUHU216HW,2013-07-17 06:04:00,
2013-07-16 23:09:00,79.4,65.3,27.45,NW,315,0.0,0.7,62,0.00,,,0.00,WUHU216HW,2013-07-17 06:09:00,
2013-07-16 23:14:00,79.2,65.1,27.45,WNW,293,0.0,0.2,62,0.00,,,0.00,WUHU216HW,2013-07-17 06:14:00,
2013-07-16 23:19:00,79.2,65.1,27.45,WNW,293,0.0,0.0,62,0.00,,,0.00,WUHU216HW,2013-07-17 06:19:00,
2013-07-16 23:24:00,79.2,65.1,27.45,NNW,338,0.4,0.4,62,0.00,,,0.00,WUHU216HW,2013-07-17 06:24:00,
2013-07-16 23:29:00,79.2,65.1,27.45,North,0,0.0,0.4,62,0.00,,,0.00,WUHU216HW,2013-07-17 06:29:00,
2013-07-16 23:34:00,79.2,65.1,27.45,NNW,338,0.0,0.2,62,0.00,,,0.00,WUHU216HW,2013-07-17 06:34:00,
2013-07-16 23:39:00,79.2,65.1,27.45,NNW,338,0.0,0.0,62,0.00,,,0.00,WUHU216HW,2013-07-17 06:39:00,
2013-07-16 23:44:00,79.4,65.3,27.45,NNW,338,0.0,0.0,62,0.00,,,0.00,WUHU216HW,2013-07-17 06:44:00,
2013-07-16 23:49:00,79.4,65.3,27.45,NNW,338,0.0,0.0,62,0.00,,,0.00,WUHU216HW,2013-07-17 06:49:00,
2013-07-16 23:54:00,79.2,65.5,27.45,NW,315,0.0,0.0,63,0.00,,,0.00,WUHU216HW,2013-07-17 06:54:00,
2013-07-16 23:59:00,79.2,65.5,27.45,NW,315,0.0,0.0,63,0.00,,,0.00,WUHU216HW,2013-07-17 06:59:00,